This is the latest recevied weather packets stored in our database for station/object DB0TGO-14. If no packets are shown the sender has not sent any weather packets the latest 10 day(s).
| Time | Temp. | Humidity | Pressure | Rain* | Wind** | Luminosity | Snow |
|---|---|---|---|---|---|---|---|
| 1777541215 | 17.78° C | 31% | 1033.3 hPa | 0 mm | - | - | - |
| 1777541110 | 17.78° C | 32% | 1033.2 hPa | 0 mm | - | - | - |
| 1777541006 | 17.78° C | 34% | 1033.3 hPa | 0 mm | - | - | - |
| 1777540917 | 17.78° C | 33% | 1033.3 hPa | 0 mm | - | - | - |
| 1777540900 | 17.78° C | 33% | 1033.3 hPa | 0 mm | - | - | - |
| 1777540797 | 17.78° C | 34% | 1033.3 hPa | 0 mm | - | - | - |
| 1777540685 | 17.78° C | 32% | 1033.3 hPa | 0 mm | - | - | - |
| 1777540575 | 17.78° C | 31% | 1033.3 hPa | 0 mm | - | - | - |
| 1777540460 | 17.22° C | 33% | 1033.3 hPa | 0 mm | - | - | - |
| 1777540353 | 17.22° C | 33% | 1033.4 hPa | 0 mm | - | - | - |
| 1777540255 | 17.22° C | 32% | 1033.3 hPa | 0 mm | - | - | - |
| 1777540150 | 17.22° C | 32% | 1033.3 hPa | 0 mm | - | - | - |
| 1777540034 | 16.67° C | 33% | 1033.3 hPa | 0 mm | - | - | - |
| 1777539928 | 16.67° C | 32% | 1033.4 hPa | 0 mm | - | - | - |
| 1777539830 | 16.67° C | 33% | 1033.4 hPa | 0 mm | - | - | - |
| 1777539797 | 16.67° C | 34% | 1033.3 hPa | 0 mm | - | - | - |
| 1777539730 | 16.67° C | 34% | 1033.3 hPa | 0 mm | - | - | - |
| 1777539629 | 16.67° C | 34% | 1033.3 hPa | 0 mm | - | - | - |
| 1777539530 | 16.11° C | 31% | 1033.4 hPa | 0 mm | - | - | - |
| 1777539430 | 16.11° C | 33% | 1033.2 hPa | 0 mm | - | - | - |
| 1777539320 | 15.56° C | 34% | 1033.3 hPa | 0 mm | - | - | - |
| 1777539210 | 15.56° C | 37% | 1033.5 hPa | 0 mm | - | - | - |
| 1777539115 | 15.56° C | 34% | 1033.4 hPa | 0 mm | - | - | - |
| 1777539004 | 15° C | 34% | 1033.5 hPa | 0 mm | - | - | - |
| 1777538885 | 15° C | 36% | 1033.6 hPa | 0 mm | - | - | - |
* Rain latest hour (hover to see other rain measurements)
** Current wind speed in m/s (hover to see current wind gust speed)